Hovedside
METAR-TAF:

METAR-TAF

Lufthavner :

Hemavan, Sverige

Hemavan flyplass

breddegrad: 65-48-22N, lengdegrad: 015-04-58E, høyde over havet: 458 m

Gjeldene værobservasjon

Denne rapporten ble laget for 1 time og 13 minutter siden, klokken 09:50 UTC
Vind 1 kt fra Nord-nordvest
Temperatur 0°C
Luftfuktighet 55%
Trykk 1007 hPa
Sikt 10 km eller mer

METAR: ESUT 270950Z AUTO 33001KT 9999 NCD 00/M08 Q1007

Tid: 13:03 (11:03 UTC)


TAF: fraværende

Værobservasjoner og værvarsel for over 4000 flyplasser (METAR- og TAF-rapporter).

Tilgjengelige stasjoner er representert av de røde og gule prikkene på kartet.

Hold musepekeren over prikken for å se navnet på stasjonen.

Klikk så for å se værobservasjoner og -varsler.

For å forandre kartet kan du klikke på den grønne knappen med svart kryss for å zoome inn, på den grønne knappen med strek for å zoome ut, eller på de grønne pilene for å se tilstøtende kart.


METAR-TAF: